Pineville, WV

2:18 PM EST on December 14, 2019 (GMT -0500)
Pineville

Weather History for KI16 - October, 2019

Change the Weather History Date:

Wednesday, October 30, 2019

  Actual Average (WUND) Record (WUND)
Temperature  
Mean Temperature 60 °F -  
Max Temperature 65 °F - - (-1)
Min Temperature 54 °F - - (-1)
Degree Days  
Heating Degree Days 6    
Growing Degree Days 10 (Base 50)    
Moisture  
Dew Point 58 °F    
Average Humidity 94    
Maximum Humidity 98    
Minimum Humidity 76    
Precipitation  
Precipitation 0.00 in - - ()
Sea Level Pressure  
Sea Level Pressure 30.14 in    
Wind  
Wind Speed - ()    
Max Wind Speed -    
Max Gust Speed -    
Visibility 8.9 miles    
Events Rain    
Averages and records for this station are not official NWS values.
T = Trace of Precipitation, MM = Missing Value Source: Averaged Metar Reports

Daily Weather History Graph

Daily Weather History Graph

Search for Another Location

Airport or City:

Astronomy

Oct. 30, 2019 Rise Set
Actual Time 7:48 AM EDT 6:30 PM EDT
Civil Twilight 7:21 AM EDT 6:57 PM EDT
Nautical Twilight 6:51 AM EDT 7:28 PM EDT
Astronomical Twilight 6:20 AM EDT 7:58 PM EDT
Moon 10:28 AM EDT (10/30) 8:39 PM EDT (10/30)
Length of Visible Light 11h 35m
Length of Day
10h 41m
Waxing Crescent, 8% of the Moon is Illuminated
Oct 30
Waxing Crescent
Nov 4
First Quarter
Nov 12
Full
Nov 19
Last Quarter
Nov 26
New

Hourly Weather History & Observations

Time (EDT) Temp. Dew Point Humidity Pressure Visibility Wind Dir Wind Speed Gust Speed Precip Events Conditions
12:15 AM 55.6 °F 53.4 °F 92% 30.25 in 10.0 mi North - - N/A   Clear
12:35 AM 55.9 °F 53.8 °F 92% 30.25 in 10.0 mi North - - N/A   Clear
12:55 AM 55.4 °F 52.9 °F 91% 30.24 in 10.0 mi North - - N/A   Clear
1:15 AM 55.4 °F 53.4 °F 93% 30.24 in 10.0 mi North - - N/A   Clear
1:35 AM 55.2 °F 53.2 °F 93% 30.24 in 10.0 mi North - - N/A   Clear
1:55 AM 55.0 °F 52.9 °F 92% 30.23 in 10.0 mi North - - N/A   Clear
2:15 AM 55.0 °F 53.4 °F 94% 30.23 in 10.0 mi North - - N/A   Clear
2:35 AM 55.4 °F 53.6 °F 94% 30.23 in 10.0 mi North - - N/A   Clear
2:55 AM 54.5 °F 52.7 °F 94% 30.22 in 10.0 mi North - - N/A   Clear
3:15 AM 54.9 °F 53.2 °F 94% 30.22 in 10.0 mi North - - N/A   Clear
3:35 AM 54.7 °F 53.2 °F 95% 30.21 in 10.0 mi North - - N/A   Clear
3:55 AM 54.7 °F 53.2 °F 95% 30.21 in 10.0 mi North - - N/A   Clear
4:15 AM 55.0 °F 53.6 °F 95% 30.21 in 10.0 mi North - - N/A   Clear
4:35 AM 54.0 °F 52.7 °F 95% 30.21 in 10.0 mi North - - N/A   Clear
4:55 AM 54.1 °F 52.9 °F 95% 30.20 in 7.0 mi North - - N/A   Clear
5:15 AM 54.5 °F 53.4 °F 96% 30.21 in 7.0 mi North - - N/A   Clear
5:35 AM 54.1 °F 53.1 °F 96% 30.21 in 7.0 mi North - - N/A   Clear
5:55 AM 54.0 °F 52.9 °F 96% 30.21 in 10.0 mi North - - N/A   Clear
6:15 AM 54.1 °F 53.1 °F 96% 30.21 in 7.0 mi North - - N/A   Clear
6:35 AM 54.9 °F 54.0 °F 97% 30.21 in 7.0 mi North - - N/A   Clear
6:55 AM 54.7 °F 54.0 °F 97% 30.22 in 7.0 mi North - - N/A   Clear
7:15 AM 54.7 °F 53.8 °F 97% 30.23 in 10.0 mi North - - N/A   Clear
7:35 AM 54.7 °F 53.8 °F 97% 30.23 in 10.0 mi North - - N/A   Clear
7:55 AM 55.4 °F 54.5 °F 97% 30.22 in 7.0 mi North - - N/A   Scattered Clouds
8:15 AM 56.3 °F 55.4 °F 97% 30.23 in 10.0 mi North - - N/A   Mostly Cloudy
8:35 AM 57.2 °F 56.3 °F 97% 30.23 in 10.0 mi North - - N/A   Scattered Clouds
8:55 AM 58.3 °F 56.3 °F 93% 30.23 in 10.0 mi North - - N/A   Scattered Clouds
9:15 AM 59.7 °F 55.6 °F 86% 30.23 in 10.0 mi North - - N/A   Scattered Clouds
9:35 AM 58.8 °F 55.9 °F 90% 30.22 in 10.0 mi North - - N/A   Clear
9:55 AM 59.2 °F 56.5 °F 91% 30.21 in 10.0 mi North - - N/A   Clear
10:15 AM 59.2 °F 57.0 °F 93% 30.21 in 10.0 mi North - - N/A   Scattered Clouds
10:35 AM 60.3 °F 57.4 °F 90% 30.21 in 10.0 mi North - - N/A   Mostly Cloudy
10:55 AM 61.7 °F 58.3 °F 89% 30.20 in 10.0 mi North - - N/A   Mostly Cloudy
11:15 AM 64.0 °F 58.3 °F 82% 30.19 in 10.0 mi North - - N/A   Overcast
11:35 AM 65.8 °F 58.1 °F 76% 30.20 in 10.0 mi North - - N/A   Mostly Cloudy
11:55 AM 65.7 °F 59.4 °F 80% 30.19 in 10.0 mi North - - N/A   Overcast
12:15 PM 65.5 °F 60.8 °F 85% 30.19 in 7.0 mi North - - N/A Rain Light Rain
12:35 PM 64.6 °F 61.7 °F 90% 30.18 in 10.0 mi North - - N/A Rain Light Rain
12:55 PM 65.1 °F 62.4 °F 91% 30.17 in 7.0 mi North - - N/A Rain Light Rain
1:15 PM 64.0 °F 61.7 °F 92% 30.16 in 1.0 mi North - - N/A Rain Rain
1:35 PM 63.9 °F 62.1 °F 94% 30.15 in 4.0 mi North - - N/A Rain Light Rain
1:55 PM 64.6 °F 62.4 °F 93% 30.14 in 5.0 mi North - - N/A Rain Light Rain
2:15 PM 65.3 °F 62.4 °F 90% 30.12 in 10.0 mi North - - N/A Rain Light Rain
2:35 PM 65.3 °F 62.2 °F 90% 30.11 in 10.0 mi North - - N/A Rain Rain
2:55 PM 65.3 °F 62.6 °F 91% 30.10 in 10.0 mi North - - N/A Rain Light Rain
3:15 PM 65.1 °F 61.9 °F 89% 30.09 in 10.0 mi North - - N/A   Drizzle
3:35 PM 64.8 °F 62.2 °F 92% 30.10 in 7.0 mi North - - N/A Rain Rain
3:55 PM 64.4 °F 62.6 °F 94% 30.09 in 4.0 mi North - - N/A Rain Rain
4:15 PM 64.4 °F 62.4 °F 93% 30.08 in 10.0 mi North - - N/A Rain Rain
4:35 PM 64.8 °F 62.2 °F 92% 30.08 in 10.0 mi North - - N/A   Light Drizzle
4:55 PM 64.6 °F 62.2 °F 92% 30.08 in 10.0 mi North - - N/A Rain Rain
5:15 PM 64.4 °F 62.2 °F 93% 30.07 in 10.0 mi North - - N/A   Drizzle
5:35 PM 63.9 °F 62.4 °F 95% 30.06 in 10.0 mi North - - N/A   Light Drizzle
5:55 PM 63.9 °F 62.4 °F 95% 30.05 in 10.0 mi North - - N/A Rain Rain
6:15 PM 63.7 °F 62.1 °F 94% 30.05 in 10.0 mi North - - N/A   Light Drizzle
6:30 PM 63.3 °F 62.1 °F 96% 30.05 in 10.0 mi North - - N/A   Drizzle
6:55 PM 63.0 °F 62.4 °F 98% 30.05 in 10.0 mi North - - N/A   Mostly Cloudy
7:15 PM 62.4 °F 61.7 °F 97% 30.05 in 10.0 mi North - - N/A   Mostly Cloudy
7:35 PM 62.1 °F 61.5 °F 98% 30.05 in 7.0 mi North - - N/A   Overcast
7:55 PM 62.1 °F 61.5 °F 98% 30.06 in 7.0 mi North - - N/A Rain Rain
8:15 PM 62.6 °F 61.9 °F 97% 30.06 in 3.0 mi North - - N/A Rain Heavy Rain
8:35 PM 62.6 °F 61.9 °F 97% 30.05 in 10.0 mi North - - N/A   Light Drizzle
8:55 PM 62.6 °F 61.9 °F 97% 30.04 in 10.0 mi North - - N/A   Overcast
9:15 PM 62.6 °F 61.9 °F 97% 30.03 in 10.0 mi North - - N/A   Light Drizzle
9:35 PM 62.4 °F 61.7 °F 97% 30.02 in 10.0 mi North - - N/A   Mostly Cloudy
9:55 PM 63.0 °F 62.2 °F 97% 30.02 in 10.0 mi North - - N/A   Mostly Cloudy
10:15 PM 62.6 °F 61.7 °F 97% 30.01 in 10.0 mi North - - N/A   Mostly Cloudy
10:35 PM 62.1 °F 61.3 °F 97% 30.01 in 10.0 mi North - - N/A   Mostly Cloudy
10:55 PM 61.9 °F 61.2 °F 97% 30.00 in 5.0 mi North - - N/A   Mostly Cloudy
11:15 PM 61.9 °F 61.2 °F 97% 30.00 in 10.0 mi North - - N/A   Mostly Cloudy
11:35 PM 61.7 °F 61.0 °F 97% 29.99 in 5.0 mi North - - N/A   Mostly Cloudy
11:55 PM 61.3 °F 60.8 °F 98% 29.99 in 10.0 mi North - - N/A   Mostly Cloudy